www.pogodaiklimat.ru

Погода и климат >> Архив погоды >> Индонезия >> Golea


ПОГОДА в Golea

  • Прогноз погоды в Golea
  • Монитор погоды в Golea
  • Климат города

АРХИВ ПОГОДЫ в Golea

Время (UTC), дата Ветер
(напр.,м/с)
 
Видим.   Явления Облачность Т
(С)
Тd
(С)
f
(%)
Тe
(С)
Тes
(С)
Комфортность P
(гПа)
Po
(гПа)
Тmin
(С)
Tmax
(С)
R
(мм)
R24
(мм)
S
(см)
21 11.08 штиль 0 10 км 9/3 540 м
[Cu med, cong Ac trans Ci fib]
+23.2 +22.5 96 +32 +32 очень
душно
1008.4 1004.3
00 12.08 штиль 0 10 км 6/3 540 м
[Cu med, cong Ac trans Ci fib]
+28.2 +23.2 74 +38 +44 очень
душно
1009.8 1005.7 +21.4
03 12.08 В 2 10 км 6/5 540 м
[Cu med, cong Ac trans Ci fib]
+32.1 +24.2 63 +44 +53 опасность
перегрева
1008.5 1004.4
06 12.08 СЗ 2 7000 м в посл. час дождь 8/5 540 м
[Cu med, cong Ac cuf Ci sp]
+28.2 +25.9 87 +42 +47 опасность
перегрева
1007.5 1003.4 1
09 12.08 штиль 0 50 км гроза без осадков ?/? +27.9 +25.6 87 +41 +41 опасность
перегрева
1008.5 1004.4
12 12.08 штиль 0 8000 м {гроза} 9/6 500 м
[Cb calv Ac cuf Ci fib]
+25.1 +24.3 95 +35 +35 очень
душно
1011.4 1007.3 +33.2
15 12.08 штиль 0 8000 м 9/4 540 м
[Cu med, cong Ac trans Ci sp]
+24.5 +24.0 97 +34 +34 очень
душно
1011.6 1007.5
18 12.08 штиль 0 10 км 6/3 540 м
[Cu med, cong Ac trans Ci fib]
+23.3 +23.1 99 +33 +33 очень
душно
1009.3 1005.2
21 12.08 штиль 0 10 км 6/3 540 м
[Cu med, cong Ac trans Ci fib]
+22.2 +21.8 98 +29 +29 очень
душно
1010.2 1006.1
00 13.08 СЗ 2 10 км 3/1 570 м
[Cu hum Ci fib]
+28.0 +23.3 76 +38 +45 очень
душно
1011.2 1007.1 +22.4 1
03 13.08 В 2 10 км 5/3 540 м
[Cu med, cong Ac trans Ci fib]
+32.6 +23.4 58 +43 +57 опасность
перегрева
1009.7 1005.6
06 13.08 ЮВ 3 10 км 9/6 500 м
[Cb cap Ac trans Ci fib]
+30.8 +24.5 69 +43 +46 опасность
перегрева
1008.4 1004.3
09 13.08 ЮЗ 3 10 км в посл. час гроза 8/5 540 м
[Cu med, cong Ac trans Ci fib]
+30.1 +25.4 76 +44 +44 опасность
перегрева
1008.8 1004.7
12 13.08 З 2 10 км {гроза} 6/4 540 м
[Cu med, cong Ac trans Ci fib]
+26.4 +24.9 91 +38 +38 очень
душно
1010.7 1006.6 +33.5
15 13.08 ЮЗ 1 10 км 6/4 540 м
[Cu med, cong Ac trans Ci fib]
+25.6 +24.4 93 +36 +36 очень
душно
1011.5 1007.4
18 13.08 З 2 10 км 5/3 540 м
[Cu med, cong Ac trans Ci fib]
+23.8 +23.1 96 +32 +32 очень
душно
1010.4 1006.3
21 13.08 ЮЗ 1 10 км 5/3 540 м
[Cu med, cong Ac trans Ci fib]
+22.8 +22.0 95 +31 +31 очень
душно
1010.3 1006.2
00 14.08 ЮЗ 2 10 км 4/1 570 м
[Cu hum Ac trans Ci fib]
+27.6 +22.5 74 +36 +43 очень
душно
1011.1 1007.0 +24.2
03 14.08 ЮВ 1 10 км 5/3 570 м
[Cu med, cong Ac trans Ci fib]
+32.2 +24.2 63 +44 +59 опасность
перегрева
1009.8 1005.7
06 14.08 СВ 2 10 км 6/4 570 м
[Cu med, cong Ac trans Ci fib]
+31.8 +25.0 67 +45 +52 опасность
перегрева
1007.7 1003.6
09 14.08 З 3 10 км 5/3 570 м
[Cu med, cong Ac trans Ci fib]
+30.2 +24.1 70 +42 +42 опасность
перегрева
1008.4 1004.3
12 14.08 штиль 0 10 км 5/3 570 м
[Cu med, cong Ac trans Ci fib]
+26.6 +23.9 85 +37 +37 очень
душно
1010.1 1006.0 +32.6
15 14.08 штиль 0 10 км 5/3 570 м
[Cu med, cong Ac trans Ci fib]
+24.1 +23.7 98 +33 +33 очень
душно
1010.4 1006.3
18 14.08 штиль 0 10 км 4/1 570 м
[Cu hum Ci fib]
+23.0 +22.6 98 +32 +32 очень
душно
1009.5 1005.4
21 14.08 З 1 10 км 3/1 570 м
[Cu hum Ci fib]
+22.4 +22.0 98 +30 +30 очень
душно
1009.1 1005.0
00 15.08 штиль 0 10 км 4/1 570 м
[Cu med, cong Ac trans Ci fib]
+27.8 +23.2 76 +37 +46 очень
душно
1010.6 1006.5 +23.6
03 15.08 ЮВ 2 10 км 6/5 570 м
[Cu med, cong Ac trans Ci fib]
+31.4 +24.5 67 +44 +54 опасность
перегрева
1009.2 1005.1
06 15.08 З 4 10 км 6/4 570 м
[Cu med, cong Ac trans Ci sp]
+33.4 +24.3 59 +46 +50 опасность
перегрева
1007.2 1003.1
09 15.08 З 5 10 км 6/4 570 м
[Cu med, cong Ac trans Ci sp]
+30.8 +24.8 70 +44 +44 опасность
перегрева
1007.3 1003.2
12 15.08 штиль 0 10 км 6/4 570 м
[Cu med, cong Ac trans Ci fib]
+26.4 +24.3 88 +37 +37 очень
душно
1009.4 1005.3 +34.0
15 15.08 штиль 0 10 км 4/1 570 м
[Cu hum Ci fib]
+24.6 +23.9 96 +34 +34 очень
душно
1009.3 1005.2
18 15.08 штиль 0 10 км 4/1 570 м
[Cu hum Ci fib]
+23.2 +22.8 98 +32 +32 очень
душно
1007.8 1003.7
21 15.08 штиль 0 10 км 4/1 570 м
[Cu hum Ci fib]
+22.0 +21.6 98 +29 +29 очень
душно
1007.5 1003.4
00 16.08 З 2 10 км 6/3 570 м
[Cu med, cong Ac trans Ci fib]
+27.2 +23.0 78 +36 +41 очень
душно
1008.4 1004.3 +22.0
03 16.08 З 5 10 км 6/4 570 м
[Cu med, cong Ac trans Ci fib]
+32.8 +23.3 57 +43 +49 опасность
перегрева
1007.7 1003.6
06 16.08 З 3 10 км 6/6 540 м
[]
+32.2 +24.0 62 +44 +48 опасность
перегрева
1005.3 1001.2
09 16.08 З 2 10 км 6/6 540 м
[]
+31.0 +23.8 66 +43 +43 опасность
перегрева
1005.7 1001.6
12 16.08 штиль 0 10 км 6/3 570 м
[Cu hum Ac trans Ci fib]
+25.2 +23.9 93 +35 +35 очень
душно
1007.7 1003.6 +33.8
15 16.08 штиль 0 10 км 6/3 570 м
[Cu med, cong Ac trans Ci fib]
+23.7 +23.0 96 +31 +31 очень
душно
1008.5 1004.4
18 16.08 штиль 0 10 км 6/3 570 м
[Cu med, cong Ac trans Ci fib]
+22.8 +22.4 98 +31 +31 очень
душно
1006.7 1002.6
21 16.08 штиль 0 10 км 8/3 570 м
[Cu med, cong Ac trans Ci fib]
+22.0 +21.6 98 +29 +29 очень
душно
1007.0 1002.9
00 17.08 З 2 10 км 5/3 570 м
[Cu hum Ac trans Ci fib]
+28.3 +22.8 72 +38 +42 очень
душно
1007.7 1003.6 +20.1
03 17.08 ЮЗ 4 10 км 5/4 570 м
[Cu med, cong Ci fib]
+33.8 +23.2 54 +44 +53 опасность
перегрева
1006.6 1002.5
06 17.08 СВ 2 10 км 8/5 570 м
[Cu med, cong Ac trans Ci fib]
+32.4 +25.2 66 +46 +51 опасность
перегрева
1004.8 1000.7
09 17.08 З 4 10 км 6/4 570 м
[Cu med, cong Ac trans Ci fib]
+31.3 +24.0 65 +43 +43 опасность
перегрева
1005.9 1001.8
12 17.08 штиль 0 10 км 6/4 540 м
[Cu med, cong Ac trans Ci fib]
+26.8 +24.9 89 +38 +38 очень
душно
1008.4 1004.3 +34.2
15 17.08 ЮЗ 1 10 км 6/3 540 м
[Cu med, cong Ac trans Ci fib]
+24.6 +23.6 94 +33 +33 очень
душно
1008.7 1004.6
18 17.08 ЮВ 1 10 км 6/3 540 м
[Cu med, cong Ac trans Ci fib]
+23.2 +22.8 98 +32 +32 очень
душно
1007.7 1003.6
21 17.08 штиль 0 10 км 6/3 540 м
[Cu med, cong Ac trans Ci fib]
+21.9 +21.5 98 +28 +28 душно 1009.0 1004.9
00 18.08 штиль 0 10 км 3/1 540 м
[Cu hum Ac trans Ci fib]
+27.0 +23.4 81 +37 +45 очень
душно
1010.3 1006.2 +22.0
03 18.08 СВ 3 10 км 5/4 570 м
[Cu med, cong Ac trans Ci fib]
+32.4 +24.4 63 +45 +56 опасность
перегрева
1008.4 1004.3
06 18.08 СВ 2 10 км 6/4 570 м
[Cu med, cong Ac trans Ci fib]
+32.6 +25.3 66 +47 +54 опасность
перегрева
1006.0 1001.9
09 18.08 штиль 0 8000 м гроза без осадков 9/5 540 м
[Cb cap Ac cuf Ci fib]
+30.0 +26.6 82 +46 +46 опасность
перегрева
1006.7 1002.6
12 18.08 штиль 0 10 км {гроза} 5/4 570 м
[Cu med, cong Ac trans Ci fib]
+26.5 +25.1 92 +38 +38 очень
душно
1009.0 1004.9 +33.4
15 18.08 штиль 0 10 км 5/4 570 м
[Cu med, cong Ac trans Ci fib]
+24.7 +23.7 94 +34 +34 очень
душно
1010.4 1006.3
18 18.08 штиль 0 10 км 5/4 570 м
[Cu med, cong Ac trans Ci fib]
+23.8 +23.4 98 +32 +32 очень
душно
1009.5 1005.4

 

Местоположение метеостанции Golea (Индонезия): широта 1.82 долгота 127.83 высота над уровнем моря 8 м.

В архиве по умолчанию представлена погода в Golea за последнюю неделю. Архивные данные за месяц целиком и за предыдущие месяцы, начиная с января 2011 года, Вы можете получить, выбрав интересующий диапазон дат из раскрывающегося списка и нажав кнопку "Ввод!".


*Определитесь, кто Вы:
робот инопланетянин человек

Внимание! Время в таблицах - всемирное. Для получения местного времени необходимо прибавить поправку, которая в Golea равна 8 ч.

Смотрите также архив погоды в соседних городах и на ближайших метеорологических станциях:

Погода в Ternate (Индонезия) (128 км)
Погода в Labuha (Индонезия) (275 км)
Погода в Bitung (Индонезия) (298 км)
Погода в Menado (Индонезия) (326 км)
Погода в Sorong-Jefman Airport (Индонезия) (476 км)
Погода в Sanana (Индонезия) (479 км)
Погода в Gorontalo (Индонезия) (550 км)
Погода в General Santos (Филиппины) (561 км)
Погода в Namlea (Индонезия) (570 км)
Погода в Amahai (Индонезия) (587 км)

Пояснения к столбцам:

Ветер - указаны скорость ветра в м/с - средняя за 10 мин, порывы в срок и между сроками (в фигурных скобках) и направление, откуда дует ветер: С - северный, СВ - северо-восточный, В - восточный, ЮВ - юго-восточный, Ю - южный, ЮЗ - юго-западный, З - западный, СЗ - северо-западный.
Видимость - горизонтальная дальность видимости в метрах или километрах. При видимости от 1 до 10 км при отсутствии осадков обычно наблюдается дымка, при ухудшении видимости до 1 км и менее - туман. В сухую погоду видимость может ухудшаться дымом, пылью или мглою.
Явления - указаны атмосферные явления, наблюдавшиеся в срок или в последний час перед сроком; фигурными скобками обозначены явления, наблюдавшиеся между сроками (за 1-3 часа до срока); квадратными скобками обозначены град или гололедные отложения с указанием их диаметра в мм.
Облачность - указаны через наклонную черту общая и нижняя облачность в баллах и высота нижней границы облаков в метрах; квадратными скобками обозначены формы облаков: Ci - перистые, Cs - перисто-слоистые, Cc - перисто-кучевые, Ac - высококучевые, As - высокослоистые, Sc - слоисто-кучевые, Ns - слоисто-дождевые, Cu - кучевые, Cb - кучево-дождевые. Подробнее классификацию облаков см. в Атласе облаков (PDF).
T - Температура воздуха - температура, измеренная на высоте 2 м над землей.
Td - Температура точки росы - температура, при понижении до которой содержащийся в воздухе водяной пар достигнет насыщения.
f - Относительная влажность воздуха - влажноcть воздуха, измеренная на высоте 2 м над землей.
Te - Эффективная температура - температура, которую ощущает одетый по сезону человек в тени. Характеристика душности погоды. При расчете учитывается влияние влажности воздуха и скорости ветра на теплоощущения человека.
Tes - Эффективная температура на солнце - температура, которую ощущает человек, с поправкой на солнечный нагрев. Характеристика знойности погоды. Зависит от высоты солнца над горизонтом, облачности и скорости ветра. Ночью, в пасмурную погоду, а также при ветре 12 м/с и более поправка равна нулю.
P - Атмосферное давление - приведенное к уровню моря атмосферное давление.
Po - Атмосферное давление - измеренное на уровне метеостанции атмосферное давление.
Tmin - Минимальная температура - минимум температуры воздуха на высоте 2 м над землей.
Tmax - Максимальная температура - максимум температуры воздуха на высоте 2 м над землей.
R - Количество осадков - Количество выпавших осадков за период времени, мм. При наведении курсора мыши на число - период времени, за который выпало указанное количество осадков.
R24 - Количество осадков - Количество выпавших осадков за 24 часа, мм.
S - Снежный покров - Высота снежного покрова, см. При наведении курсора мыши на число - состояние снежного покрова и степень покрытия местности в баллах.